This is the latest recevied weather packets stored in our database for station/object N4CJR-13. If no packets are shown the sender has not sent any weather packets the latest 1 day(s).
| Time | Temp. | Humidity | Pressure | Rain* | Wind** | Luminosity | Snow |
|---|---|---|---|---|---|---|---|
| 1777981562 | 18.33° C | 64% | 999.7 hPa | - | 0.45 m/s, 118° | - | - |
| 1777980662 | 18.33° C | 65% | 999.6 hPa | - | 0.45 m/s, 115° | - | - |
| 1777979763 | 18.33° C | 63% | 999.5 hPa | - | 0.45 m/s, 221° | - | - |
| 1777978862 | 18.33° C | 63% | 999.3 hPa | - | 0.45 m/s, 303° | - | - |
| 1777977962 | 18.33° C | 63% | 999.1 hPa | - | 0.45 m/s, 64° | - | - |
| 1777977063 | 18.33° C | 64% | 999 hPa | - | 0.89 m/s, 231° | - | - |
| 1777976162 | 17.78° C | 65% | 998.9 hPa | - | 0.45 m/s, 209° | - | - |
| 1777975263 | 17.78° C | 65% | 998.9 hPa | - | 0.45 m/s, 248° | - | - |
| 1777974362 | 18.33° C | 65% | 998.8 hPa | - | 0.45 m/s, 124° | - | - |
| 1777973462 | 18.33° C | 65% | 998.7 hPa | - | 0.89 m/s, 210° | - | - |
| 1777972563 | 18.33° C | 67% | 998.5 hPa | - | 0.45 m/s, 263° | - | - |
| 1777971662 | 18.33° C | 66% | 998.5 hPa | - | 0.45 m/s, 213° | - | - |
| 1777970762 | 18.33° C | 67% | 998.6 hPa | - | 0.45 m/s, 243° | - | - |
| 1777969862 | 18.33° C | 69% | 998.5 hPa | - | 0.45 m/s, 216° | - | - |
| 1777968963 | 18.33° C | 69% | 998.6 hPa | - | 0.45 m/s, 171° | - | - |
| 1777968063 | 18.33° C | 69% | 998.5 hPa | - | 0.45 m/s, 205° | - | - |
| 1777967162 | 18.33° C | 68% | 998.5 hPa | - | 0.45 m/s, 113° | - | - |
| 1777966262 | 18.89° C | 67% | 998.4 hPa | - | 0.45 m/s, 282° | - | - |
| 1777965362 | 18.89° C | 67% | 998.3 hPa | - | 0.45 m/s, 152° | - | - |
| 1777964463 | 18.89° C | 66% | 998.3 hPa | - | 0.45 m/s, 158° | - | - |
| 1777963563 | 18.89° C | 64% | 998.4 hPa | - | 0.45 m/s, 222° | - | - |
| 1777962662 | 18.89° C | 64% | 998.3 hPa | - | 0.45 m/s, 306° | - | - |
* Rain since midnight (hover to see other rain measurements)
** Current wind speed in m/s (hover to see current wind gust speed)